P/2017 B4 ( PanSTARRS )

Japanese version
Home page
Updated on February 27, 2017

---------------------------------------------------------------------

* Profile

Discovery Date January 28, 2017
Magnitude 21.2 mag
Discoverer Pan-STARRS 1 telescope (Haleakala)

* Pictures

* Orbital Elements

T 2017 Jan. 12.49552 TT                                 MPCW
q   2.7435961            (2000.0)            P               Q
n   0.10975748     Peri.   13.09738     -0.68179901     -0.67494354
a   4.3202940      Node   120.73820     +0.63810731     -0.73730684
e   0.3649515      Incl.   19.16276     +0.35772778     +0.02880696
P   8.98
From 44 observations 2017 Jan. 28-Feb. 3.

* Magnitudes Graph

        m1 = 14.5 + 5 log d + 10.0 log r

---------------------------------------------------------------------

The orbital elements are published on M.P.E.C. 2017-C46.
The magnitudes graphs are made with Comet for Windows.

---------------------------------------------------------------------

Copyright(C) Seiichi Yoshida (comet@aerith.net). All rights reserved.